SCP
0 0 0 0 0 0 0 0 0 0 0 0 0 0 0 0 0 0 0 0 0 0 0 0 0 0 0 0 0 0 0 0 0 0 0 0 0 0 0 0 0 0 0
0 0 0 0 0 0 0 0 0 0 0 0 0 0 0 0 0 0 0 0 0 0 0 0 0 0 0 0 0 0 0 0 0 0 0 0 0 0 0 0 0 0 0
0 0 0 0 0 0 0 0 0 0 0 0 0 0 0 0 0 0 0 0 0 0 0 0 0 0 0 0 -0 0 0 0 0 0 0 0 0 0 0 0 0 0 0
0 0 0 0 0 0 0 0 0 0 0 0 0 0 0 0 0 0 0 0 0 0 0 0 0 0 0 -0 -0 -0 -0 -0 -0 -0 -0 -0 0 0 0 0 0 0 0
0 0 0 0 0 0 0 0 0 0 0 0 0 0 0 0 0 0 0 0 0 0 0 0 0 -0 0 0 0 0 0 -0 -0 -0 -0 -0 -0 0 0 0 0 0 0
0 0 0 0 0 0 0 0 0 0 0 0 0 0 0 0 0 0 0 0 0 0 0 0 0 0 0 -0 -0 -0 -0 -0 -0 -0 -0 0 0 0 0 0 0 0 0
0 0 0 0 0 0 0 0 0 0 0 0 0 0 0 0 0 0 0 0 0 0 0 0 0 -0 -0 0 -0 -0 -0 -0 -0 -0 -0 0 -0 0 0 0 0 0 0
0 0 0 0 0 0 0 0 0 0 0 0 0 0 0 0 0 0 0 0 0 0 0 0 -0 0 0 0 0 0 -0 -0 -0 -0 0 0 0 0 0 0 0 0 0
0 0 0 0 0 0 0 0 0 0 0 0 0 0 0 0 0 0 0 0 0 0 0 -0 -0 0 -0 -0 -0 0 -0 -0 -0 -0 -0 -0 -0 -0 0 -0 0 0 0
0 0 0 0 0 0 0 0 0 0 0 0 0 0 0 0 0 0 0 0 0 0 0 0 -0 0 -0 -0 -0 -0 -0 -0 -0 -0 -0 -0 -0 -0 -0 -0 0 0 0
0 0 0 0 0 0 0 0 0 0 0 0 0 0 0 0 0 0 0 0 0 0 -0 0 0 -0 -0 -0 -0 -0 -0 -0 -0 -0 -0 -0 -0 -0 -0 -0 0 0 0
0 0 0 0 0 0 0 0 0 0 0 0 0 0 0 0 0 0 0 0 -0 -0 -0 -0 0 -0 -0 -0 -0 -0 -0 -0 -0 -0 -0 -0 -0 -0 0 -0 0 0 0
0 0 0 0 0 0 0 0 0 0 0 0 0 0 0 0 0 0 0 0 0 0 -0 -0 -0 0 -0 -0 -0 -0 -0 -0 -0 -0 -0 -0 -0 -0 0 -0 0 0 0
0 0 0 0 0 0 0 0 0 0 0 0 0 0 0 0 0 0 0 0 -0 0 -0 -0 0 0 0 -0 -0 -0 -0 -0 -0 -0 -0 0 0 0 0 0 0 0 0
0 0 0 0 0 0 0 0 0 0 0 0 0 0 0 0 0 0 0 0 0 0 -0 -0 0 0 0 0 -0 -0 -0 -0 -0 -0 -0 -0 -0 0 0 0 0 0 0
0 0 0 0 0 0 0 0 0 0 0 0 0 0 0 0 0 0 0 0 0 -0 -0 0 0 0 0 0 -0 0 -0 -0 -0 -0 -0 -0 0 0 0 0 0 0 0
0 0 0 0 0 0 0 0 0 0 0 0 0 0 0 0 0 0 0 0 0 0 -0 -0 0 0 0 0 0 0 0 -0 -0 -0 -0 -0 -0 0 0 0 0 0 0
0 0 0 0 0 0 0 0 0 0 0 0 0 0 0 0 0 0 0 0 0 0 0 0 -0 0 0 0 0 0 0 0 0 0 0 0 0 0 0 0 0 0 0
0 0 0 0 0 0 0 0 0 0 0 0 0 0 0 0 0 0 0 0 0 0 0 0 0 -0 0 -0 0 0 0 0 0 0 0 0 0 0 0 0 0 0 0
0 0 0 0 0 0 0 0 0 0 0 0 0 0 0 0 0 0 0 0 0 0 0 0 0 0 -0 0 -0 -0 -0 -0 0 0 0 0 0 0 0 0 0 0 0
0 0 0 0 0 0 0 0 0 0 0 0 0 0 0 0 0 0 0 0 0 0 0 0 0 0 0 -0 -0 -0 -0 -0 -0 -0 -0 0 0 0 0 0 0 0 0
0 0 0 0 0 0 0 0 0 0 0 0 0 0 0 0 0 0 0 0 0 0 0 0 0 0 0 0 0 0 -0 0 -0 -0 -0 -0 -0 0 0 0 0 0 0
0 0 0 0 0 0 0 0 0 0 0 0 0 0 0 0 0 0 0 0 0 0 0 0 0 0 0 0 0 0 0 0 0 -0 -0 0 0 -0 -0 -0 -0 -0 0
0 0 0 0 0 0 0 0 0 0 0 0 0 0 0 0 0 0 0 0 0 0 0 0 0 0 0 0 0 0 0 0 0 0 0 0 -0 -0 -0 -0 0 -0 -0
0 0 0 0 0 0 0 0 0 0 0 0 0 0 0 0 0 0 0 0 0 0 0 0 0 0 0 0 0 0 0 0 0 0 0 0 0 0 -0 -0 -0 -0 -0
0 0 0 0 0 0 0 0 0 0 0 0 0 0 0 0 0 0 0 0 0 0 0 0 0 0 0 0 0 0 0 0 0 0 0 0 0 0 0 -0 -0 -0 -0
Wind_Speed_500mb
50 57 62 63 63 64 65 65 65 62 58 53 52 55 58 59 62 64 60 51 38 41 45 51 58 61 70 77 78 77 70 68 67 86 78 76 73 72 69 59 58 63 60
54 60 62 64 66 67 68 67 66 64 59 55 54 56 59 60 62 63 61 44 40 52 54 54 62 65 72 74 71 72 78 80 71 78 74 67 61 57 59 58 52 51 51
57 62 63 65 68 68 70 70 67 65 59 54 54 57 59 60 62 61 56 48 48 57 58 58 60 63 67 67 69 73 67 72 78 78 86 77 68 58 55 49 47 42 42
58 60 62 66 69 71 70 69 67 63 59 56 56 57 57 58 57 54 47 54 59 60 59 59 56 60 63 64 75 77 75 72 76 73 82 83 73 66 58 52 44 36 44
58 60 63 66 68 69 68 66 63 60 58 57 59 58 56 54 51 51 56 60 58 57 59 55 55 58 62 61 73 77 73 80 79 74 67 67 70 63 56 51 50 50 41
56 59 62 64 65 66 65 63 61 59 58 57 57 57 55 50 49 48 53 54 53 54 56 51 56 62 66 71 74 63 68 83 86 78 72 62 71 63 53 47 46 43 9
52 54 58 62 65 65 63 61 60 59 56 54 52 52 51 50 47 49 48 47 51 51 52 60 59 61 66 74 71 82 90 83 71 60 54 49 50 40 40 42 41 10 5
49 54 58 62 64 64 62 59 57 54 53 53 51 49 48 45 45 46 44 49 47 53 51 50 56 59 69 65 80 88 81 67 59 38 15 6 8 18 25 21 8 6 6
51 57 62 64 64 64 62 60 56 57 52 49 47 46 45 44 46 42 48 46 53 49 54 52 47 60 65 62 69 75 60 54 42 41 44 42 24 14 15 11 11 11 11
54 59 62 61 61 63 61 61 58 51 49 45 45 41 45 49 49 43 45 57 45 66 44 45 59 64 54 56 62 65 35 37 29 27 35 35 31 25 24 25 24 15 9
52 56 60 59 57 59 61 57 55 53 49 47 48 49 55 54 44 42 46 48 59 30 59 66 61 53 50 51 41 57 23 21 28 32 33 32 29 28 28 31 32 28 24
52 56 59 58 55 58 59 57 53 52 50 55 59 62 59 56 38 45 43 46 48 56 60 61 57 44 43 40 27 24 20 23 26 30 32 35 36 36 33 31 31 30 30
49 55 58 57 57 56 58 56 54 51 51 60 62 61 63 61 46 54 54 48 45 50 54 55 37 30 30 31 23 26 22 28 31 32 32 30 28 25 21 23 24 25 22
50 57 59 59 60 56 51 52 53 51 54 61 59 61 65 60 55 63 60 46 59 49 53 38 31 23 23 25 25 29 28 28 31 33 31 27 21 20 24 27 23 21 23
51 57 58 58 58 57 56 52 53 47 44 48 51 53 59 57 55 52 52 49 46 39 38 25 18 13 15 21 26 28 27 25 29 30 28 30 30 29 28 27 30 28 33
50 56 58 58 57 56 57 56 48 50 46 42 38 41 43 40 45 46 47 41 37 31 31 27 21 17 16 17 19 19 20 21 24 24 24 26 28 30 28 28 28 31 34
50 54 55 55 55 56 56 58 65 53 50 48 49 47 38 41 44 44 41 38 39 34 29 24 20 15 11 10 9 9 10 13 16 15 18 21 23 24 24 25 27 27 31
47 53 54 53 53 52 53 55 58 62 63 57 51 53 47 45 43 43 36 35 27 27 26 21 17 15 12 9 7 5 3 2 5 7 9 13 15 17 17 18 19 21 24
44 50 52 51 50 50 51 52 54 55 56 58 60 56 50 51 53 42 38 36 33 27 26 21 20 17 15 15 14 13 13 12 11 11 11 11 11 11 11 12 13 13 15
40 48 52 51 50 49 50 52 53 54 56 59 61 63 60 63 54 50 44 41 37 31 26 24 21 20 19 19 20 21 21 20 18 17 16 14 13 11 10 9 9 9 10
35 43 50 50 49 51 50 51 53 54 56 58 59 60 57 53 56 54 49 44 40 36 30 25 22 22 22 22 25 27 27 26 25 23 22 19 17 15 13 11 9 8 8
33 40 47 51 50 50 50 48 50 53 56 59 58 57 57 57 58 57 54 50 44 37 34 30 24 23 24 24 25 29 31 31 31 31 30 27 25 23 20 18 16 14 12
32 36 41 48 51 50 49 48 49 51 54 56 57 59 61 60 58 57 55 56 53 48 42 37 32 25 25 26 26 27 30 30 31 38 37 34 32 30 29 27 25 23 22
29 34 39 46 51 52 52 51 48 49 53 55 56 56 58 60 62 56 53 51 52 48 45 44 40 35 28 26 27 26 24 25 32 37 39 39 37 37 37 35 33 32 31
26 31 36 42 50 55 55 53 51 51 53 56 57 57 56 58 61 57 53 53 50 49 46 45 43 41 34 26 23 23 22 23 24 28 34 36 37 38 39 38 38 37 37
23 29 34 39 44 51 56 56 54 53 54 56 57 57 57 57 58 60 56 59 55 49 51 50 43 39 37 30 22 19 19 20 19 21 24 27 29 31 33 33 35 35 34
Wind_Direction_500mb
325 328 328 330 329 328 326 326 325 323 320 315 316 317 319 321 321 321 323 326 319 317 324 323 324 331 320 313 303 294 285 289 277 292 291 295 292 291 291 290 276 279 279
327 328 330 329 328 327 327 327 326 325 321 316 316 316 317 318 318 318 319 322 322 327 325 324 328 327 323 322 321 310 293 287 277 282 297 298 297 299 297 294 287 283 278
329 331 330 329 327 328 328 328 328 324 322 319 316 316 318 317 316 317 315 328 325 324 325 320 318 325 321 321 323 324 318 304 286 272 284 296 298 301 304 301 297 290 281
330 330 329 327 328 329 329 329 327 325 324 321 319 318 320 318 318 316 321 325 323 321 316 317 317 316 318 320 320 316 316 313 304 281 274 289 296 303 300 304 309 305 299
331 330 329 330 329 328 328 330 327 326 325 323 321 321 322 325 324 323 320 318 316 313 318 313 312 317 316 310 313 313 314 310 305 304 288 283 288 293 292 306 301 307 307
331 332 331 330 330 331 331 331 329 329 327 326 324 325 330 331 323 320 318 316 317 320 316 321 321 319 317 314 315 315 308 306 302 297 287 278 282 287 294 299 307 304 266
333 334 334 335 335 335 335 334 333 332 330 329 330 333 333 338 326 324 323 321 324 324 324 326 326 322 325 323 330 325 317 315 305 292 283 271 267 280 293 301 316 302 329
338 340 341 341 340 337 338 338 336 336 337 339 337 339 340 343 329 330 328 328 330 329 329 328 328 329 328 328 327 320 327 352 20 26 26 174 250 293 308 323 300 342 27
343 345 345 344 341 341 342 340 343 344 344 341 344 345 346 351 342 334 333 330 334 328 327 336 332 327 332 329 325 325 345 19 55 49 69 81 70 55 56 33 50 4 3
347 349 347 344 344 343 344 344 347 342 344 346 349 352 355 358 352 340 338 335 329 327 339 331 325 331 332 333 328 343 2 19 27 54 65 72 73 66 57 52 43 25 15
349 349 348 348 347 344 348 346 346 346 350 353 353 0 1 359 352 343 340 338 328 345 335 333 333 340 336 338 346 23 29 37 68 82 75 72 64 60 58 51 48 48 54
351 352 352 352 353 349 350 350 352 351 351 357 358 358 350 352 1 352 344 340 341 330 331 337 340 342 345 348 14 51 64 69 76 81 77 71 67 64 59 48 42 41 42
354 354 356 358 358 355 355 354 355 354 356 358 354 341 344 346 356 2 352 343 339 329 334 339 343 356 8 27 72 88 88 78 75 73 65 59 54 50 44 36 32 34 36
358 359 359 2 0 0 2 358 356 356 356 353 339 341 337 342 354 355 346 343 338 339 333 346 354 4 27 51 78 87 82 74 67 63 58 53 50 49 47 43 35 44 60
0 0 2 2 2 1 1 5 360 359 352 335 335 333 332 340 345 340 343 339 343 336 333 350 1 22 47 64 66 75 79 81 77 70 63 58 54 52 51 49 51 58 67
3 3 2 1 2 3 359 2 13 7 2 353 342 336 337 332 335 340 340 335 345 340 349 356 5 17 28 47 62 58 68 70 68 61 53 49 49 48 46 49 52 56 64
3 4 2 0 2 1 0 1 360 15 15 10 0 355 346 337 340 341 340 330 337 343 346 345 348 352 360 11 30 55 50 56 59 45 39 37 38 38 40 41 46 53 63
3 3 2 1 1 1 359 0 0 359 2 8 8 2 359 360 349 341 343 342 342 340 344 340 332 324 320 314 309 304 308 352 352 12 17 10 13 21 27 32 38 40 51
3 5 3 2 1 1 360 1 2 3 3 3 2 6 1 10 5 357 357 353 356 352 343 335 323 311 299 291 280 273 271 273 281 298 315 329 338 352 4 16 25 26 34
4 5 4 1 1 3 2 2 5 6 6 5 4 1 3 5 3 7 5 0 358 355 345 335 320 307 290 277 273 272 270 271 273 276 280 286 294 309 328 343 348 2 7
7 8 7 3 2 4 3 4 5 6 6 7 8 7 9 359 8 9 8 6 360 355 351 340 325 312 297 279 268 263 262 263 266 267 270 273 276 281 286 292 297 305 319
7 10 7 6 5 6 5 5 5 6 6 6 9 11 10 10 12 11 12 11 7 0 351 343 333 316 304 292 275 263 259 256 258 262 263 264 266 268 270 272 275 279 281
7 8 8 8 7 8 8 7 6 6 7 8 8 9 11 12 10 10 10 11 10 8 4 353 341 327 306 299 288 276 265 258 252 252 255 257 258 260 262 264 268 271 274
5 6 7 7 8 9 8 8 7 7 7 8 10 9 8 9 9 7 8 9 10 11 10 5 355 344 326 302 293 288 280 265 254 255 255 256 258 258 259 260 262 263 265
2 5 5 6 7 8 8 9 7 6 8 8 9 8 7 7 8 9 11 10 8 7 11 9 1 352 343 328 302 291 287 275 269 262 260 259 257 256 256 257 257 258 258
358 3 5 6 5 7 6 7 7 5 6 8 7 8 6 5 8 11 12 13 9 10 10 8 359 357 351 348 337 311 295 285 279 270 266 264 261 258 256 254 252 252 252
Wind_Speed_850mb
50 57 62 63 63 64 65 65 65 62 58 53 52 55 58 59 62 64 60 51 38 41 45 51 58 61 70 77 78 77 70 68 67 86 78 76 73 72 69 59 58 63 60
54 60 62 64 66 67 68 67 66 64 59 55 54 56 59 60 62 63 61 44 40 52 54 54 62 65 72 74 71 72 78 80 71 78 74 67 61 57 59 58 52 51 51
57 62 63 65 68 68 70 70 67 65 59 54 54 57 59 60 62 61 56 48 48 57 58 58 60 63 67 67 69 73 67 72 78 78 86 77 68 58 55 49 47 42 42
58 60 62 66 69 71 70 69 67 63 59 56 56 57 57 58 57 54 47 54 59 60 59 59 56 60 63 64 75 77 75 72 76 73 82 83 73 66 58 52 44 36 44
58 60 63 66 68 69 68 66 63 60 58 57 59 58 56 54 51 51 56 60 58 57 59 55 55 58 62 61 73 77 73 80 79 74 67 67 70 63 56 51 50 50 41
56 59 62 64 65 66 65 63 61 59 58 57 57 57 55 50 49 48 53 54 53 54 56 51 56 62 66 71 74 63 68 83 86 78 72 62 71 63 53 47 46 43 9
52 54 58 62 65 65 63 61 60 59 56 54 52 52 51 50 47 49 48 47 51 51 52 60 59 61 66 74 71 82 90 83 71 60 54 49 50 40 40 42 41 10 5
49 54 58 62 64 64 62 59 57 54 53 53 51 49 48 45 45 46 44 49 47 53 51 50 56 59 69 65 80 88 81 67 59 38 15 6 8 18 25 21 8 6 6
51 57 62 64 64 64 62 60 56 57 52 49 47 46 45 44 46 42 48 46 53 49 54 52 47 60 65 62 69 75 60 54 42 41 44 42 24 14 15 11 11 11 11
54 59 62 61 61 63 61 61 58 51 49 45 45 41 45 49 49 43 45 57 45 66 44 45 59 64 54 56 62 65 35 37 29 27 35 35 31 25 24 25 24 15 9
52 56 60 59 57 59 61 57 55 53 49 47 48 49 55 54 44 42 46 48 59 30 59 66 61 53 50 51 41 57 23 21 28 32 33 32 29 28 28 31 32 28 24
52 56 59 58 55 58 59 57 53 52 50 55 59 62 59 56 38 45 43 46 48 56 60 61 57 44 43 40 27 24 20 23 26 30 32 35 36 36 33 31 31 30 30
49 55 58 57 57 56 58 56 54 51 51 60 62 61 63 61 46 54 54 48 45 50 54 55 37 30 30 31 23 26 22 28 31 32 32 30 28 25 21 23 24 25 22
50 57 59 59 60 56 51 52 53 51 54 61 59 61 65 60 55 63 60 46 59 49 53 38 31 23 23 25 25 29 28 28 31 33 31 27 21 20 24 27 23 21 23
51 57 58 58 58 57 56 52 53 47 44 48 51 53 59 57 55 52 52 49 46 39 38 25 18 13 15 21 26 28 27 25 29 30 28 30 30 29 28 27 30 28 33
50 56 58 58 57 56 57 56 48 50 46 42 38 41 43 40 45 46 47 41 37 31 31 27 21 17 16 17 19 19 20 21 24 24 24 26 28 30 28 28 28 31 34
50 54 55 55 55 56 56 58 65 53 50 48 49 47 38 41 44 44 41 38 39 34 29 24 20 15 11 10 9 9 10 13 16 15 18 21 23 24 24 25 27 27 31
47 53 54 53 53 52 53 55 58 62 63 57 51 53 47 45 43 43 36 35 27 27 26 21 17 15 12 9 7 5 3 2 5 7 9 13 15 17 17 18 19 21 24
44 50 52 51 50 50 51 52 54 55 56 58 60 56 50 51 53 42 38 36 33 27 26 21 20 17 15 15 14 13 13 12 11 11 11 11 11 11 11 12 13 13 15
40 48 52 51 50 49 50 52 53 54 56 59 61 63 60 63 54 50 44 41 37 31 26 24 21 20 19 19 20 21 21 20 18 17 16 14 13 11 10 9 9 9 10
35 43 50 50 49 51 50 51 53 54 56 58 59 60 57 53 56 54 49 44 40 36 30 25 22 22 22 22 25 27 27 26 25 23 22 19 17 15 13 11 9 8 8
33 40 47 51 50 50 50 48 50 53 56 59 58 57 57 57 58 57 54 50 44 37 34 30 24 23 24 24 25 29 31 31 31 31 30 27 25 23 20 18 16 14 12
32 36 41 48 51 50 49 48 49 51 54 56 57 59 61 60 58 57 55 56 53 48 42 37 32 25 25 26 26 27 30 30 31 38 37 34 32 30 29 27 25 23 22
29 34 39 46 51 52 52 51 48 49 53 55 56 56 58 60 62 56 53 51 52 48 45 44 40 35 28 26 27 26 24 25 32 37 39 39 37 37 37 35 33 32 31
26 31 36 42 50 55 55 53 51 51 53 56 57 57 56 58 61 57 53 53 50 49 46 45 43 41 34 26 23 23 22 23 24 28 34 36 37 38 39 38 38 37 37
23 29 34 39 44 51 56 56 54 53 54 56 57 57 57 57 58 60 56 59 55 49 51 50 43 39 37 30 22 19 19 20 19 21 24 27 29 31 33 33 35 35 34
Wind_Direction_850mb
325 328 328 330 329 328 326 326 325 323 320 315 316 317 319 321 321 321 323 326 319 317 324 323 324 331 320 313 303 294 285 289 277 292 291 295 292 291 291 290 276 279 279
327 328 330 329 328 327 327 327 326 325 321 316 316 316 317 318 318 318 319 322 322 327 325 324 328 327 323 322 321 310 293 287 277 282 297 298 297 299 297 294 287 283 278
329 331 330 329 327 328 328 328 328 324 322 319 316 316 318 317 316 317 315 328 325 324 325 320 318 325 321 321 323 324 318 304 286 272 284 296 298 301 304 301 297 290 281
330 330 329 327 328 329 329 329 327 325 324 321 319 318 320 318 318 316 321 325 323 321 316 317 317 316 318 320 320 316 316 313 304 281 274 289 296 303 300 304 309 305 299
331 330 329 330 329 328 328 330 327 326 325 323 321 321 322 325 324 323 320 318 316 313 318 313 312 317 316 310 313 313 314 310 305 304 288 283 288 293 292 306 301 307 307
331 332 331 330 330 331 331 331 329 329 327 326 324 325 330 331 323 320 318 316 317 320 316 321 321 319 317 314 315 315 308 306 302 297 287 278 282 287 294 299 307 304 266
333 334 334 335 335 335 335 334 333 332 330 329 330 333 333 338 326 324 323 321 324 324 324 326 326 322 325 323 330 325 317 315 305 292 283 271 267 280 293 301 316 302 329
338 340 341 341 340 337 338 338 336 336 337 339 337 339 340 343 329 330 328 328 330 329 329 328 328 329 328 328 327 320 327 352 20 26 26 174 250 293 308 323 300 342 27
343 345 345 344 341 341 342 340 343 344 344 341 344 345 346 351 342 334 333 330 334 328 327 336 332 327 332 329 325 325 345 19 55 49 69 81 70 55 56 33 50 4 3
347 349 347 344 344 343 344 344 347 342 344 346 349 352 355 358 352 340 338 335 329 327 339 331 325 331 332 333 328 343 2 19 27 54 65 72 73 66 57 52 43 25 15
349 349 348 348 347 344 348 346 346 346 350 353 353 0 1 359 352 343 340 338 328 345 335 333 333 340 336 338 346 23 29 37 68 82 75 72 64 60 58 51 48 48 54
351 352 352 352 353 349 350 350 352 351 351 357 358 358 350 352 1 352 344 340 341 330 331 337 340 342 345 348 14 51 64 69 76 81 77 71 67 64 59 48 42 41 42
354 354 356 358 358 355 355 354 355 354 356 358 354 341 344 346 356 2 352 343 339 329 334 339 343 356 8 27 72 88 88 78 75 73 65 59 54 50 44 36 32 34 36
358 359 359 2 0 0 2 358 356 356 356 353 339 341 337 342 354 355 346 343 338 339 333 346 354 4 27 51 78 87 82 74 67 63 58 53 50 49 47 43 35 44 60
0 0 2 2 2 1 1 5 360 359 352 335 335 333 332 340 345 340 343 339 343 336 333 350 1 22 47 64 66 75 79 81 77 70 63 58 54 52 51 49 51 58 67
3 3 2 1 2 3 359 2 13 7 2 353 342 336 337 332 335 340 340 335 345 340 349 356 5 17 28 47 62 58 68 70 68 61 53 49 49 48 46 49 52 56 64
3 4 2 0 2 1 0 1 360 15 15 10 0 355 346 337 340 341 340 330 337 343 346 345 348 352 360 11 30 55 50 56 59 45 39 37 38 38 40 41 46 53 63
3 3 2 1 1 1 359 0 0 359 2 8 8 2 359 360 349 341 343 342 342 340 344 340 332 324 320 314 309 304 308 352 352 12 17 10 13 21 27 32 38 40 51
3 5 3 2 1 1 360 1 2 3 3 3 2 6 1 10 5 357 357 353 356 352 343 335 323 311 299 291 280 273 271 273 281 298 315 329 338 352 4 16 25 26 34
4 5 4 1 1 3 2 2 5 6 6 5 4 1 3 5 3 7 5 0 358 355 345 335 320 307 290 277 273 272 270 271 273 276 280 286 294 309 328 343 348 2 7
7 8 7 3 2 4 3 4 5 6 6 7 8 7 9 359 8 9 8 6 360 355 351 340 325 312 297 279 268 263 262 263 266 267 270 273 276 281 286 292 297 305 319
7 10 7 6 5 6 5 5 5 6 6 6 9 11 10 10 12 11 12 11 7 0 351 343 333 316 304 292 275 263 259 256 258 262 263 264 266 268 270 272 275 279 281
7 8 8 8 7 8 8 7 6 6 7 8 8 9 11 12 10 10 10 11 10 8 4 353 341 327 306 299 288 276 265 258 252 252 255 257 258 260 262 264 268 271 274
5 6 7 7 8 9 8 8 7 7 7 8 10 9 8 9 9 7 8 9 10 11 10 5 355 344 326 302 293 288 280 265 254 255 255 256 258 258 259 260 262 263 265
2 5 5 6 7 8 8 9 7 6 8 8 9 8 7 7 8 9 11 10 8 7 11 9 1 352 343 328 302 291 287 275 269 262 260 259 257 256 256 257 257 258 258
358 3 5 6 5 7 6 7 7 5 6 8 7 8 6 5 8 11 12 13 9 10 10 8 359 357 351 348 337 311 295 285 279 270 266 264 261 258 256 254 252 252 252